Location: Brahman Valley
(40.6513°N, 111.8855°W)
Time: 12:59:06
(UTC+00:00)

Vanguard 1 - All Passes

Search period start: 13 May 2021 00:00
Search period end: 23 May 2021 00:00
Orbit: 649 x 3834 km, 34.2° (Epoch: 04 May)

Date Brightness Start Highest point End Pass type
(mag) Time Alt. Az. Time Alt. Az. Time Alt. Az.
13 May - 00:00:42 10° SW 00:05:31 12° SW 00:10:59 10° SSW daylight
13 May - 14:57:02 10° SSW 15:00:47 25° SSE 15:05:33 10° E daylight
13 May - 17:14:58 10° WSW 17:20:17 52° S 17:29:17 10° ESE daylight
13 May - 19:33:59 10° W 19:41:09 45° SSW 19:53:57 10° SE daylight
13 May - 21:54:53 10° WSW 22:03:25 25° SSW 22:16:11 10° SSE daylight
14 May - 15:17:18 10° SW 15:21:24 32° SSE 15:26:52 10° E daylight
14 May - 17:35:41 10° WSW 17:41:09 52° S 17:50:30 10° ESE daylight
14 May - 19:54:57 10° W 20:02:11 39° SSW 20:14:39 10° SE daylight
14 May - 22:17:02 10° WSW 22:24:35 19° SSW 22:34:55 10° S daylight
15 May - 13:21:50 10° SSE 13:23:00 11° SSE 13:24:11 10° SE daylight
15 May - 15:37:47 10° SW 15:42:05 39° SSE 15:48:05 10° E daylight
15 May - 17:56:26 10° WSW 18:02:02 49° S 18:11:38 10° ESE daylight
15 May - 20:16:03 10° W 20:23:14 32° SSW 20:35:01 10° SE daylight
15 May - 22:40:32 10° SW 22:45:45 13° SSW 22:52:04 10° S daylight
16 May - 13:40:45 10° SSW 13:43:36 17° SSE 13:46:35 10° ESE daylight
16 May - 15:58:22 10° WSW 16:02:49 44° S 16:09:14 10° E daylight
16 May - 18:17:15 10° W 18:22:57 44° S 18:32:37 10° ESE daylight
16 May - 20:37:25 10° WSW 20:44:18 25° SSW 20:54:55 10° SSE daylight
17 May - 14:00:43 10° SSW 14:04:13 23° SSE 14:08:03 10° ESE daylight
17 May - 16:19:04 10° WSW 16:23:37 46° S 16:30:21 10° ESE daylight
17 May - 18:38:09 10° W 18:43:53 37° SSW 18:53:26 10° SE daylight
17 May - 20:59:13 10° WSW 21:05:25 19° SSW 21:14:08 10° SSE daylight
18 May - 14:21:03 10° SW 14:24:54 29° SSE 14:29:15 10° ESE daylight
18 May - 16:39:48 10° WSW 16:44:26 45° S 16:51:24 10° ESE daylight
18 May - 18:59:09 10° WSW 19:04:51 31° SSW 19:13:57 10° SE daylight
18 May - 21:22:04 10° SW 21:26:33 13° SSW 21:32:06 10° S daylight
19 May - 12:24:10 10° S 12:26:16 13° SSE 12:28:14 10° SE daylight
19 May - 14:41:34 10° SW 14:45:36 35° SSE 14:50:20 10° ESE daylight
19 May - 17:00:36 10° WSW 17:05:15 41° S 17:12:22 10° ESE daylight
19 May - 19:20:23 10° WSW 19:25:51 24° SSW 19:34:06 10° SSE daylight
20 May - 12:43:39 10° SSW 12:46:59 18° SSE 12:50:03 10° ESE daylight
20 May - 15:02:14 10° WSW 15:06:21 39° S 15:11:21 10° ESE daylight
20 May - 17:21:27 10° WSW 17:26:07 35° S 17:33:11 10° SE daylight
20 May - 19:41:59 10° WSW 19:46:52 18° SSW 19:53:39 10° SSE daylight
21 May - 13:03:48 10° SW 13:07:43 24° SSE 13:11:20 10° ESE daylight
21 May - 15:22:59 10° WSW 15:27:08 41° S 15:32:18 10° ESE daylight
21 May - 17:42:24 10° WSW 17:47:00 29° SSW 17:53:47 10° SE daylight
21 May - 20:04:31 10° SW 20:07:56 13° SSW 20:12:06 10° S daylight
22 May - 11:06:44 10° S 11:08:44 12° SSE 11:10:32 10° SE visible
22 May - 13:24:16 10° SW 13:28:28 30° SSE 13:32:24 10° ESE daylight
22 May - 15:43:47 10° WSW 15:47:55 39° S 15:53:13 10° ESE daylight
22 May - 18:03:33 10° WSW 18:07:54 23° SSW 18:14:05 10° SSE daylight
